[[{"header":{"parameterUnit":"m.s-1","parameterCategory":1,"la1":30.2991,"la2":30.254,"lo1":-89.0895,"lo2":-89.0444,"dy":0.0017,"dx":0.0017,"nx":28,"ny":28,"refTime":"2023-09-09T21:00:00:Z","depth":0,"parameterNumber":2,"parameterNumberName":"U-component_of_WINDS"},"data":[0,0,0,0,0,0,0,0,0,0,0,0,0,0,0,0,0,0,0,0,0,0,0,0,0,0,0,0,0,0,0,0,0,0,0,0,0,0,0,0,0,0,0,0,0,0,0,0,0,0,0,0,0,0,0,0,0,0,-1.0763,-1.0762,0,-1.0676,-1.0675,-1.0674,-1.0615,-1.0615,-1.0615,-1.0614,-1.0522,-1.052,-1.0518,0,0,0,0,0,0,0,0,0,0,0,0,0,-1.0878,-1.0876,-1.0763,-1.0762,-1.0761,-1.0676,-1.0675,-1.0673,-1.0615,-1.0615,-1.0614,-1.0614,-1.0523,-1.052,-1.0518,0,0,0,0,0,0,0,0,0,0,0,0,0,-1.0813,-1.0876,-1.0763,-1.0722,-1.0717,-1.0676,-1.0675,-1.0673,-1.0616,-1.0615,-1.0614,-1.0614,-1.0524,-1.0521,-1.0517,-1.051,0,0,-1.0508,-1.0507,0,0,0,0,0,0,0,0,-1.0817,-1.0809,-1.0729,-1.0725,-1.0719,-1.0656,-1.0681,-1.0618,-1.0616,-1.0654,-1.0614,-1.0614,-1.0567,-1.056,-1.0545,-1.0506,-1.0502,-1.0508,-1.0506,-1.0504,-1.0503,0,0,0,0,0,0,0,-1.0822,-1.0812,-1.0728,-1.0728,-1.0722,-1.0707,-1.0697,-1.0669,-1.0615,-1.0651,-1.0646,-1.0637,-1.0564,-1.0548,-1.0542,-1.05,-1.0508,-1.0505,-1.0503,-1.0502,-1.0452,-1.0452,0,0,0,0,0,0,-1.0833,-1.0817,-1.0731,-1.0726,-1.0768,-1.0705,-1.0694,-1.0677,-1.0615,-1.0605,-1.0637,-1.0634,-1.0554,-1.0546,-1.0539,-1.0527,-1.0504,-1.0501,-1.05,-1.0451,-1.0452,-1.0452,0,0,0,0,0,0,-1.0836,-1.0826,-1.0735,-1.077,-1.0757,-1.0704,-1.0685,-1.0675,-1.0659,-1.0605,-1.0595,-1.0631,-1.0553,-1.0543,-1.0518,-1.0523,-1.05,-1.0497,-1.045,-1.0451,-1.0452,-1.0502,0,0,0,0,0,0,-1.0839,-1.0827,-1.0824,-1.077,-1.0756,-1.0716,-1.0685,-1.0674,-1.0654,-1.065,-1.0596,-1.0587,-1.0552,-1.0523,-1.0515,-1.0518,-1.0495,-1.045,-1.0451,-1.0452,-1.05,-1.0505,-1.0509,0,0,0,0,0,-1.0843,-1.0841,-1.0824,-1.0814,-1.0751,-1.0716,-1.0708,-1.0668,-1.0655,-1.0651,-1.0617,-1.0589,-1.0524,-1.0521,-1.0511,-1.0514,-1.0449,-1.045,-1.0452,-1.0498,-1.0504,-1.0509,0,0,0,0,0,0,-1.0895,-1.0833,-1.0814,-1.0794,-1.0761,-1.0707,-1.07,-1.0675,-1.0645,-1.0641,-1.0593,-1.0581,-1.0561,-1.0535,-1.0533,-1.0504,-1.0483,-1.0483,-1.0522,-1.0527,-1.0531,-1.0538,-1.0492,0,0,0,0,0,-1.0904,-1.0882,-1.0829,-1.0816,-1.0801,-1.0754,-1.0737,-1.071,-1.0673,-1.0659,-1.0622,-1.0587,-1.0559,-1.0541,-1.0512,-1.0496,-1.0484,-1.0493,-1.0497,-1.0501,-1.0501,-1.0492,-1.0495,-1.0456,-1.0456,-1.0456,0,0,-1.0922,-1.0886,-1.0875,-1.0826,-1.0797,-1.0775,-1.0742,-1.072,-1.0703,-1.0655,-1.0629,-1.0602,-1.0559,-1.0539,-1.0528,-1.0516,-1.051,-1.0503,-1.0506,-1.0504,-1.0493,-1.0497,-1.0501,-1.0457,-1.0457,-1.0457,0,0,-1.0945,-1.0915,-1.0902,-1.0874,-1.0832,-1.0801,-1.0798,-1.0747,-1.0728,-1.0701,-1.0665,-1.0644,-1.0596,-1.0568,-1.0548,-1.0562,-1.0535,-1.0554,-1.0577,-1.0568,-1.0571,-1.0574,-1.0579,-1.0582,-1.0554,-1.0554,-1.0554,0,-1.0973,-1.0939,-1.0898,-1.0878,-1.0858,-1.0815,-1.0802,-1.0776,-1.0726,-1.0713,-1.0701,-1.0641,-1.061,-1.0583,-1.0587,-1.0571,-1.0566,-1.0559,-1.0574,-1.0576,-1.0578,-1.0583,-1.0585,-1.0556,-1.0556,-1.0556,-1.0556,0,-1.0976,-1.0953,-1.0947,-1.0901,-1.088,-1.0864,-1.082,-1.0804,-1.0779,-1.0749,-1.0724,-1.0685,-1.0648,-1.0639,-1.0614,-1.0609,-1.0603,-1.0583,-1.0562,-1.0585,-1.0589,-1.059,-1.056,-1.0559,-1.0558,-1.0558,0,0,-1.1027,-1.096,-1.0959,-1.0938,-1.0889,-1.087,-1.0852,-1.0817,-1.0804,-1.0771,-1.0755,-1.0717,-1.0699,-1.0675,-1.0646,-1.0639,-1.0654,-1.062,-1.0618,-1.0628,-1.0647,-1.0663,-1.0666,-1.0636,-1.0636,-1.0636,-1.0651,0,-1.1042,-1.1008,-1.0971,-1.095,-1.0929,-1.0889,-1.0873,-1.0841,-1.0813,-1.0791,-1.0759,-1.0733,-1.0711,-1.0697,-1.0688,-1.0654,-1.0657,-1.0652,-1.062,-1.062,-1.0632,-1.0667,-1.0683,-1.0699,-1.0652,-1.0652,-1.0652,0,-1.1055,-1.1026,-1.1003,-1.0957,-1.0947,-1.0933,-1.0899,-1.0878,-1.0841,-1.0822,-1.0797,-1.0767,-1.0746,-1.0727,-1.0698,-1.0696,-1.068,-1.0662,-1.0662,-1.0657,-1.0637,-1.0664,-1.0703,-1.0705,-1.0654,-1.0654,-1.0654,0,-1.1095,-1.105,-1.1031,-1.1014,-1.096,-1.0952,-1.0929,-1.0892,-1.0874,-1.0843,-1.0831,-1.0799,-1.0781,-1.0757,-1.0719,-1.0708,-1.0694,-1.0671,-1.0677,-1.0678,-1.0675,-1.0676,-1.0712,-1.0665,-1.0665,-1.0665,-1.0665,0,-1.1116,-1.1104,-1.1049,-1.1037,-1.1022,-1.098,-1.0967,-1.094,-1.0908,-1.089,-1.0853,-1.0837,-1.0787,-1.0765,-1.0735,-1.0716,-1.0708,-1.0692,-1.0684,-1.0695,-1.0698,-1.0685,-1.0683,-1.0666,-1.0665,-1.0665,-1.0665,0,-1.1159,-1.1121,-1.1098,-1.1049,-1.1037,-1.1028,-1.0986,-1.0973,-1.0944,-1.0922,-1.0915,-1.0868,-1.0841,-1.0801,-1.0761,-1.0741,-1.0726,-1.0713,-1.0739,-1.0735,-1.0742,-1.0742,-1.0772,-1.0774,-1.0726,-1.0726,-1.0727,0,-1.1175,-1.1164,-1.1116,-1.1102,-1.108,-1.1058,-1.104,-1.0998,-1.0981,-1.0939,-1.0932,-1.0902,-1.0875,-1.0834,-1.0796,-1.0766,-1.0752,-1.0765,-1.0747,-1.0759,-1.0753,-1.0754,-1.0753,-1.0769,-1.077,-1.077,-1.0771,0,-1.1207,-1.119,-1.1165,-1.1135,-1.1115,-1.1088,-1.106,-1.1051,-1.1003,-1.0986,-1.0958,-1.0938,-1.0898,-1.0869,-1.0834,-1.081,-1.0783,-1.0777,-1.0776,-1.0788,-1.0803,-1.0796,-1.0751,-1.0776,-1.0775,-1.0775,-1.0775,-1.0775,-1.1237,-1.1227,-1.1191,-1.1165,-1.114,-1.1116,-1.1102,-1.1071,-1.1048,-1.1013,-1.099,-1.0964,-1.0928,-1.0879,-1.0856,-1.0835,-1.0823,-1.0823,-1.0822,-1.0823,-1.0827,-1.0807,-1.0828,-1.0828,-1.0828,-1.0827,-1.0827,0,-1.1268,-1.1244,-1.1221,-1.1183,-1.1164,-1.1141,-1.1109,-1.1094,-1.1072,-1.1041,-1.1017,-1.0986,-1.0958,-1.0919,-1.0888,-1.0879,-1.0866,-1.0872,-1.0873,-1.0868,-1.0839,-1.0843,-1.0884,-1.0884,-1.0884,-1.0884,-1.0884,-1.0884,-1.1282,-1.1264,-1.1242,-1.1211,-1.1187,-1.1162,-1.1146,-1.1123,-1.1098,-1.1066,-1.1043,-1.1018,-1.0984,-1.0951,-1.0925,-1.0914,-1.0905,-1.0915,-1.0901,-1.0875,-1.087,-1.0865,-1.0868,-1.0914,-1.0914,-1.0931,-1.0932,-1.0932]},{"header":{"parameterUnit":"m.s-1","parameterCategory":1,"la1":30.2991,"la2":30.254,"lo1":-89.0895,"lo2":-89.0444,"dy":0.0017,"dx":0.0017,"nx":28,"ny":28,"refTime":"2023-09-09T21:00:00:Z","depth":0,"parameterNumber":3,"parameterNumberName":"V-component_of_WINDS"},"data":[0,0,0,0,0,0,0,0,0,0,0,0,0,0,0,0,0,0,0,0,0,0,0,0,0,0,0,0,0,0,0,0,0,0,0,0,0,0,0,0,0,0,0,0,0,0,0,0,0,0,0,0,0,0,0,0,0,0,2.2633,2.2633,0,2.2608,2.2608,2.2607,2.264,2.2641,2.2642,2.2643,2.2613,2.2611,2.261,0,0,0,0,0,0,0,0,0,0,0,0,0,2.2704,2.2702,2.2633,2.2633,2.2632,2.2608,2.2608,2.2607,2.264,2.2641,2.2642,2.2644,2.2614,2.2612,2.2609,0,0,0,0,0,0,0,0,0,0,0,0,0,2.2675,2.2702,2.2633,2.2646,2.2646,2.2608,2.2608,2.2607,2.2639,2.2641,2.2643,2.2644,2.2615,2.2612,2.2609,2.2556,0,0,2.26,2.2599,0,0,0,0,0,0,0,0,2.2677,2.2673,2.2644,2.2645,2.2646,2.2629,2.2622,2.259,2.2639,2.2642,2.2643,2.2645,2.2617,2.2614,2.2605,2.2555,2.2553,2.26,2.2598,2.2597,2.2596,0,0,0,0,0,0,0,2.2679,2.2674,2.2623,2.2644,2.2644,2.2651,2.2649,2.2616,2.2619,2.2642,2.2644,2.2641,2.2618,2.2608,2.2605,2.2553,2.26,2.2598,2.2596,2.2595,2.2456,2.2454,0,0,0,0,0,0,2.268,2.2675,2.2624,2.2622,2.2666,2.2648,2.2646,2.2632,2.262,2.262,2.2639,2.2642,2.2612,2.2608,2.2604,2.2539,2.2597,2.2595,2.2593,2.2458,2.2455,2.2453,0,0,0,0,0,0,2.2681,2.2675,2.2625,2.2649,2.2644,2.2645,2.263,2.2631,2.2621,2.2618,2.2619,2.2629,2.2613,2.2608,2.2568,2.2539,2.2593,2.2591,2.246,2.2457,2.2454,2.2411,0,0,0,0,0,0,2.2683,2.2675,2.2656,2.2649,2.2642,2.259,2.2628,2.2629,2.2617,2.2621,2.2609,2.2608,2.2614,2.2572,2.2565,2.2536,2.2588,2.2463,2.2459,2.2455,2.2414,2.2406,2.24,0,0,0,0,0,2.2686,2.2644,2.2655,2.2649,2.2618,2.2588,2.2584,2.2593,2.2615,2.2594,2.2592,2.2609,2.2544,2.2567,2.256,2.2529,2.2464,2.246,2.2456,2.2418,2.2408,2.24,0,0,0,0,0,0,2.2647,2.2644,2.2655,2.2611,2.26,2.2594,2.2569,2.2583,2.2564,2.2568,2.2579,2.2576,2.2532,2.2527,2.2554,2.2477,2.2507,2.2501,2.2481,2.2472,2.2464,2.2465,2.2586,0,0,0,0,0,2.2633,2.2611,2.2609,2.2569,2.2563,2.2567,2.2554,2.2562,2.255,2.2545,2.2541,2.2527,2.2504,2.2488,2.2466,2.2415,2.2411,2.239,2.2383,2.2377,2.237,2.2341,2.2331,2.2439,2.2439,2.2439,0,0,2.2604,2.26,2.2585,2.2561,2.2554,2.2528,2.2563,2.2535,2.2515,2.2541,2.2502,2.2498,2.2484,2.2438,2.2417,2.2432,2.234,2.2371,2.2366,2.2363,2.2335,2.2325,2.2316,2.2435,2.2436,2.2437,0,0,2.2538,2.2534,2.25,2.2492,2.248,2.2483,2.2475,2.2467,2.2466,2.2428,2.2446,2.2423,2.2382,2.2371,2.236,2.229,2.2304,2.2283,2.2243,2.2214,2.2205,2.2198,2.217,2.2161,2.2277,2.2277,2.2277,0,2.2503,2.2467,2.248,2.2451,2.2439,2.2463,2.2427,2.2418,2.24,2.239,2.2408,2.2357,2.235,2.23,2.2283,2.2274,2.2263,2.2283,2.2206,2.2198,2.2191,2.2165,2.2156,2.2274,2.2275,2.2275,2.2275,0,2.2424,2.2399,2.2372,2.2355,2.234,2.2308,2.2314,2.2298,2.2307,2.2308,2.2268,2.226,2.2236,2.2225,2.2234,2.2176,2.2186,2.2205,2.2235,2.2178,2.2154,2.2144,2.2271,2.2272,2.2272,2.2273,0,0,2.2331,2.2322,2.2312,2.2304,2.2293,2.2273,2.2241,2.2219,2.2204,2.219,2.2162,2.2128,2.2145,2.2133,2.214,2.2115,2.2057,2.2137,2.2137,2.212,2.1991,2.1975,2.1964,2.2068,2.2066,2.2064,2.1992,0,2.2264,2.221,2.222,2.2167,2.2142,2.2165,2.2137,2.2126,2.2126,2.2104,2.2103,2.2078,2.2104,2.2096,2.2072,2.207,2.2031,2.2075,2.2039,2.2038,2.204,2.1952,2.1935,2.1866,2.1982,2.1981,2.198,0,2.2177,2.2162,2.2106,2.2098,2.2088,2.2063,2.2043,2.2023,2.2011,2.2012,2.1999,2.2011,2.1977,2.201,2.1963,2.1992,2.1978,2.1975,2.1972,2.1967,2.2004,2.1942,2.1845,2.1834,2.1965,2.1967,2.1968,0,2.2112,2.2077,2.2039,2.2032,2.2023,2.2004,2.1999,2.1989,2.1975,2.1958,2.1948,2.1927,2.1914,2.1897,2.1902,2.1926,2.1852,2.1886,2.185,2.185,2.1832,2.1833,2.1729,2.1827,2.1827,2.1827,2.1828,0,2.2034,2.1999,2.201,2.1986,2.1946,2.1959,2.1918,2.1916,2.1907,2.1882,2.19,2.1876,2.1885,2.1861,2.1865,2.1824,2.1819,2.1817,2.1818,2.1814,2.1814,2.1803,2.1807,2.1825,2.1825,2.1826,2.1826,0,2.1954,2.1961,2.192,2.1915,2.1913,2.1883,2.1878,2.1855,2.1857,2.1825,2.1818,2.1819,2.1792,2.1796,2.1765,2.1768,2.1716,2.1724,2.172,2.1721,2.1684,2.1686,2.1568,2.1552,2.1663,2.1662,2.1661,0,2.1903,2.1876,2.1868,2.1854,2.1847,2.1823,2.1809,2.182,2.1804,2.1789,2.1767,2.1741,2.1721,2.1676,2.1673,2.1649,2.1655,2.1616,2.1652,2.1648,2.1652,2.1652,2.1649,2.1607,2.1606,2.1605,2.1604,0,2.181,2.1815,2.1795,2.1775,2.1758,2.1743,2.173,2.1716,2.1726,2.1707,2.1679,2.1664,2.1633,2.1606,2.1584,2.1577,2.1591,2.1594,2.1583,2.1578,2.1576,2.1574,2.1698,2.1595,2.1596,2.1597,2.1598,2.1598,2.1741,2.1718,2.1709,2.1685,2.1677,2.1664,2.1641,2.1641,2.1619,2.1595,2.1603,2.1571,2.1558,2.153,2.1521,2.1495,2.1509,2.1496,2.1492,2.1487,2.1482,2.1582,2.1491,2.1492,2.1492,2.1492,2.1492,0,2.1648,2.1643,2.1622,2.1603,2.1584,2.1601,2.1587,2.1569,2.1542,2.153,2.151,2.1478,2.1452,2.1448,2.1423,2.1403,2.1409,2.1396,2.1396,2.1394,2.1472,2.1482,2.1392,2.1392,2.1392,2.1392,2.1392,2.1392,2.1597,2.1558,2.1561,2.1517,2.1513,2.1483,2.1473,2.146,2.1451,2.1414,2.1394,2.1392,2.1382,2.1357,2.1334,2.1333,2.1322,2.1306,2.1307,2.1379,2.1389,2.1398,2.1408,2.1304,2.1304,2.1232,2.1231,2.1231]}]]